Date String (YYYY-MM-DD hh:mm:ss) UTC,Instrument flags,absolute air pressure of the measurement (hPa),sample flow rate (lpm),inlet stack bypass flow (lpm),air temperature of the measurement (°C),ambient temperature measured by the external sensor (°C),aerosol sample conditioner tube jacket temperature (°C),OPC LED temperature (°C),internal box temperature (°C),relative humidity of the measurement (%),span deviation,mass concentration of particles derived from Lorenz-Mie calculation of OPC scattering (μg/m³),mass concentration of particles derived from Lorenz-Mie calculation of OPC scattering (μg/m³),mass concentration of particles derived from Lorenz-Mie calculation of OPC scattering (μg/m³)
DateTimeUTC,F1_M11,P_M11,Q1_M11,Q2_M11,T1_M11,T2_M11,T3_M11,T4_M11,T5_M11,U1_M11,ZSPAN_M11,X0_M11,X2_M11,X1_M11
2023-06-29 19:00:00,SystemResetWarning,0831.3,5.01,000.00,029.9,027.8,000.0,038.2,031.1,34.5,-002.0,0022.25,0010.14,0008.43
2023-06-29 19:01:00,SystemResetWarning,0831.3,4.98,000.00,029.9,027.9,000.0,038.2,031.1,34.5,-001.8,0022.01,0010.13,0008.43
2023-06-29 19:02:00,SystemResetWarning,0831.2,5.01,000.00,030.0,026.9,000.0,038.1,031.1,34.2,-001.7,0021.87,0010.17,0008.43
2023-06-29 19:03:00,SystemResetWarning,0831.2,5.00,000.00,030.0,025.3,000.0,038.0,030.8,33.9,-002.0,0021.94,0010.17,0008.43
2023-06-29 19:04:00,SystemResetWarning,0831.1,5.01,000.00,029.9,024.8,000.0,037.9,030.6,34.2,-001.8,0022.72,0010.16,0008.42
2023-06-29 19:05:00,SystemResetWarning,0831.1,5.01,000.00,029.8,025.0,000.0,037.9,030.3,34.5,-001.7,0023.61,0010.12,0008.39
2023-06-29 19:06:00,SystemResetWarning,0831.0,4.97,000.00,029.7,025.4,000.0,038.0,030.4,35.2,-001.2,0023.02,0010.09,0008.34
2023-06-29 19:07:00,SystemResetWarning,0831.0,5.02,000.00,029.7,025.9,000.0,038.0,030.5,35.9,-001.3,0022.27,0010.14,0008.31
2023-06-29 19:08:00,SystemResetWarning,0831.0,5.00,000.00,030.0,026.3,000.0,038.0,030.8,35.6,-001.4,0022.18,0010.11,0008.26
2023-06-29 19:09:00,SystemResetWarning,0831.2,4.99,000.00,030.3,026.7,000.0,038.1,031.0,34.4,-000.9,0022.23,0010.10,0008.22
2023-06-29 19:10:00,SystemResetWarning,0831.1,4.98,000.00,030.5,027.0,000.0,038.1,031.1,33.6,-000.4,0022.52,0010.44,0008.54
2023-06-29 19:11:00,SystemResetWarning,0831.1,5.03,000.00,030.7,027.3,000.0,038.2,031.1,33.6,-000.8,0022.42,0010.95,0009.04
2023-06-29 19:12:00,SystemResetWarning,0831.1,4.99,000.00,030.8,027.6,000.0,038.3,031.1,33.3,-000.8,0022.72,0011.40,0009.53
2023-06-29 19:13:00,SystemResetWarning,0831.1,4.99,000.00,030.8,027.8,000.0,038.4,031.2,33.4,-000.8,0023.11,0011.85,0009.99
2023-06-29 19:14:00,SystemResetWarning,0831.1,5.00,000.00,030.9,027.9,000.0,038.5,031.3,32.7,-000.2,0022.87,0012.35,0010.50
2023-06-29 19:15:00,SystemResetWarning,0831.1,5.00,000.00,030.9,027.4,000.0,038.5,031.2,32.6,0000.2,0023.30,0012.75,0010.93
2023-06-29 19:16:00,SystemResetWarning,0831.1,5.00,000.00,030.9,026.0,000.0,038.4,031.1,32.8,0000.2,0023.25,0013.02,0011.25
2023-06-29 19:17:00,SystemResetWarning,0831.1,5.01,000.00,030.9,025.6,000.0,038.4,030.9,32.1,0000.2,0023.47,0013.27,0011.61
2023-06-29 19:18:00,SystemResetWarning,0831.1,5.01,000.00,030.7,025.8,000.0,038.5,030.7,32.7,0000.4,0023.86,0013.72,0012.13
2023-06-29 19:19:00,SystemResetWarning,0831.0,5.00,000.00,030.7,026.2,000.0,038.6,030.8,33.1,0000.2,0024.44,0014.00,0012.44
2023-06-29 19:20:00,SystemResetWarning,0831.1,5.00,000.00,030.6,026.6,000.0,038.6,030.9,33.0,-000.1,0024.87,0014.15,0012.65
2023-06-29 19:21:00,SystemResetWarning,0831.0,5.00,000.00,030.6,026.9,000.0,038.6,030.9,33.5,-000.4,0024.98,0013.82,0012.37
2023-06-29 19:22:00,SystemResetWarning,0831.1,4.99,000.00,030.6,027.2,000.0,038.7,031.0,34.0,-000.3,0025.14,0013.26,0011.84
2023-06-29 19:23:00,SystemResetWarning,0831.0,4.99,000.00,030.6,027.5,000.0,038.7,031.1,33.8,-000.2,0025.36,0012.85,0011.40
2023-06-29 19:24:00,SystemResetWarning,0831.0,5.00,000.00,030.6,027.7,000.0,038.7,031.2,33.9,-000.4,0024.35,0012.40,0010.93
2023-06-29 19:25:00,SystemResetWarning,0831.0,5.00,000.00,030.6,027.9,000.0,038.7,031.2,34.4,-000.8,0023.83,0011.84,0010.40
2023-06-29 19:26:00,SystemResetWarning,0831.0,5.00,000.00,030.6,026.8,000.0,038.6,031.2,34.1,-001.2,0022.40,0011.37,0009.93
2023-06-29 19:27:00,SystemResetWarning,0830.9,5.01,000.00,030.5,025.2,000.0,038.5,030.9,33.4,-001.4,0021.46,0011.03,0009.58
2023-06-29 19:28:00,SystemResetWarning,0830.9,5.01,000.00,030.4,024.7,000.0,038.4,030.7,34.1,-001.8,0020.83,0010.72,0009.26
2023-06-29 19:29:00,SystemResetWarning,0830.8,5.01,000.00,030.2,024.9,000.0,038.4,030.5,34.3,-002.1,0020.71,0010.21,0008.74
2023-06-29 19:30:00,SystemResetWarning,0830.8,4.98,000.00,030.1,025.4,000.0,038.4,030.5,34.6,-002.0,0019.88,0009.93,0008.44
2023-06-29 19:31:00,SystemResetWarning,0830.8,5.00,000.00,030.1,025.9,000.0,038.4,030.6,36.0,-001.9,0019.29,0009.73,0008.21
2023-06-29 19:32:00,SystemResetWarning,0830.8,5.02,000.00,030.3,026.3,000.0,038.4,030.8,34.5,-001.6,0018.52,0009.63,0008.12
2023-06-29 19:33:00,SystemResetWarning,0830.9,4.97,000.00,030.5,026.7,000.0,038.4,031.0,34.2,-001.4,0017.89,0009.67,0008.11
2023-06-29 19:34:00,SystemResetWarning,0830.9,5.03,000.00,030.6,027.0,000.0,038.4,031.0,34.2,-001.3,0018.24,0009.74,0008.12
2023-06-29 19:35:00,SystemResetWarning,0831.0,4.98,000.00,030.6,027.3,000.0,038.5,031.1,34.0,-001.0,0018.01,0009.75,0008.13
2023-06-29 19:36:00,SystemResetWarning,0831.0,5.01,000.00,030.7,027.5,000.0,038.5,031.1,33.7,-000.9,0018.67,0009.75,0008.13
2023-06-29 19:37:00,SystemResetWarning,0831.0,5.00,000.00,030.7,027.7,000.0,038.6,031.2,33.3,-000.9,0019.81,0009.76,0008.11
2023-06-29 19:38:00,SystemResetWarning,0831.0,5.00,000.00,030.7,027.9,000.0,038.6,031.2,32.9,-000.4,0020.33,0009.79,0008.11
2023-06-29 19:39:00,SystemResetWarning,0831.0,5.00,000.00,030.7,027.9,000.0,038.7,031.3,32.9,0000.2,0020.81,0009.82,0008.09
2023-06-29 19:40:00,SystemResetWarning,0830.9,4.98,000.00,030.7,026.6,000.0,038.6,031.1,33.3,0000.2,0021.46,0009.84,0008.07
2023-06-29 19:41:00,SystemResetWarning,0830.9,5.01,000.00,030.7,025.2,000.0,038.5,030.8,33.8,0000.5,0021.63,0009.84,0008.04
2023-06-29 19:42:00,SystemResetWarning,0830.9,5.02,000.00,030.6,024.8,000.0,038.4,030.7,33.5,0000.3,0021.90,0009.80,0008.01
2023-06-29 19:43:00,SystemResetWarning,0830.9,5.00,000.00,030.4,025.1,000.0,038.5,030.5,33.7,0000.3,0021.88,0009.80,0008.00
2023-06-29 19:44:00,SystemResetWarning,0830.8,5.01,000.00,030.3,025.5,000.0,038.5,030.5,34.2,0000.3,0022.26,0009.74,0007.99
2023-06-29 19:45:00,SystemResetWarning,0830.8,4.99,000.00,030.2,026.0,000.0,038.5,030.6,34.5,-000.2,0022.09,0009.72,0007.99
2023-06-29 19:46:00,SystemResetWarning,0830.7,5.00,000.00,030.2,026.4,000.0,038.5,030.7,34.2,-000.7,0022.70,0009.72,0007.97
2023-06-29 19:47:00,SystemResetWarning,0830.7,5.00,000.00,030.2,026.8,000.0,038.5,030.8,33.7,-000.3,0023.02,0009.76,0007.97
2023-06-29 19:48:00,SystemResetWarning,0830.7,5.00,000.00,030.2,027.1,000.0,038.5,030.9,33.5,-000.6,0021.84,0009.71,0007.99
2023-06-29 19:49:00,SystemResetWarning,0830.7,4.99,000.00,030.2,027.4,000.0,038.5,030.9,33.2,-000.8,0021.02,0009.72,0008.02
2023-06-29 19:50:00,SystemResetWarning,0830.7,5.00,000.00,030.2,027.6,000.0,038.5,031.0,33.7,-000.8,0020.49,0009.76,0008.07
2023-06-29 19:51:00,SystemResetWarning,0830.7,5.00,000.00,030.2,027.8,000.0,038.5,031.1,34.0,-000.3,0019.67,0009.80,0008.12
2023-06-29 19:52:00,SystemResetWarning,0830.6,5.00,000.00,030.2,027.9,000.0,038.5,031.1,34.4,-000.3,0019.32,0009.80,0008.15
2023-06-29 19:53:00,SystemResetWarning,0830.7,5.00,000.00,030.2,027.9,000.0,038.5,031.2,33.9,-000.3,0019.54,0009.85,0008.18
2023-06-29 19:54:00,SystemResetWarning,0830.6,5.00,000.00,030.2,026.5,000.0,038.4,031.0,33.8,-000.5,0020.87,0009.86,0008.19
2023-06-29 19:55:00,SystemResetWarning,0830.6,5.01,000.00,030.2,025.6,000.0,038.3,030.9,34.6,-000.6,0021.08,0009.89,0008.20
2023-06-29 19:56:00,SystemResetWarning,0830.6,5.01,000.00,030.1,025.6,000.0,038.2,030.7,34.3,-000.7,0020.91,0009.94,0008.24
2023-06-29 19:57:00,SystemResetWarning,0830.5,4.99,000.00,030.0,026.0,000.0,038.3,030.7,35.3,-000.8,0020.57,0009.93,0008.25
2023-06-29 19:58:00,SystemResetWarning,0830.4,5.02,000.00,030.1,026.3,000.0,038.3,030.8,35.4,-000.9,0020.08,0009.94,0008.25
2023-06-29 19:59:00,SystemResetWarning,0830.6,4.98,000.00,030.3,026.7,000.0,038.3,031.0,34.1,-000.6,0020.62,0009.99,0008.24
